Weather History for Monticello, AR

Change the Weather History Date:

Wednesday, November 21, 2012

  Actual Average Record
Temperature  
Mean Temperature 58 °F -  
Max Temperature 70 °F 61 °F 78 °F (1966)
Min Temperature 46 °F 38 °F 22 °F (1981)
Degree Days  
Heating Degree Days 7    
Growing Degree Days 8 (Base 50)    
Moisture  
Dew Point 47 °F    
Average Humidity 71    
Maximum Humidity 93    
Minimum Humidity 44    
Precipitation  
Precipitation 0.00 in - - ()
Sea Level Pressure  
Sea Level Pressure 30.21 in    
Wind  
Wind Speed 4 mph (NNE)    
Max Wind Speed 10 mph    
Max Gust Speed -    
Visibility 10 miles    
Events      
Averages and records for this station are not official NWS values.
T = Trace of Precipitation, MM = Missing Value Source: NWS Daily Summary

Daily Weather History Graph

Daily Weather History Graph

Search for Another Location

Airport:

Trip Planner

Search our weather history database for the weather conditions in past years. The results will help you decide how hot, cold, wet, or windy it might be!

Date:

Astronomy

Nov. 21, 2012 Rise Set
Actual Time 6:44 AM CST 5:00 PM CST
Civil Twilight 6:18 AM CST 5:27 PM CST
Nautical Twilight 5:47 AM CST 5:58 PM CST
Astronomical Twilight 5:17 AM CST 6:27 PM CST
Moon 1:01 PM CST (11/21) 12:22 AM CST (11/21)
Length of Visible Light 11h 09m
Length of Day
10h 16m
First Quarter, 62% of the Moon is Illuminated
Nov 21
First Quarter
Nov 28
Full
Dec 6
Last Quarter
Dec 13
New
Dec 19
First Quarter

Hourly Weather History & Observations

Time (CST) Temp. Dew Point Humidity Pressure Visibility Wind Dir Wind Speed Gust Speed Precip Events Conditions
12:53 AM 50.0 °F 48.0 °F 93% 30.16 in 7.0 mi WNW 3.5 mph - N/A   Clear
1:53 AM 55.9 °F 48.0 °F 75% 30.17 in 10.0 mi NNW 4.6 mph - N/A   Clear
2:53 AM 55.9 °F 46.9 °F 72% 30.18 in 10.0 mi Variable 4.6 mph - N/A   Clear
3:53 AM 55.0 °F 46.0 °F 72% 30.19 in 10.0 mi North 4.6 mph - N/A   Clear
4:53 AM 54.0 °F 45.0 °F 72% 30.21 in 10.0 mi Variable 3.5 mph - N/A   Clear
5:53 AM 53.1 °F 45.0 °F 74% 30.22 in 10.0 mi North 4.6 mph - N/A   Clear
6:53 AM 48.9 °F 44.1 °F 83% 30.24 in 10.0 mi Calm Calm - N/A   Clear
7:53 AM 53.1 °F 45.0 °F 74% 30.25 in 10.0 mi North 5.8 mph - N/A   Clear
8:53 AM 57.9 °F 46.9 °F 67% 30.27 in 10.0 mi Variable 3.5 mph - N/A   Clear
9:53 AM 61.0 °F 48.9 °F 64% 30.28 in 10.0 mi NE 10.4 mph - N/A   Clear
10:53 AM 64.9 °F 50.0 °F 58% 30.27 in 10.0 mi Variable 3.5 mph - N/A   Clear
11:53 AM 68.0 °F 48.9 °F 50% 30.25 in 10.0 mi ENE 5.8 mph - 0.00 in   Clear
12:53 PM 69.1 °F 46.9 °F 45% 30.22 in 10.0 mi NE 9.2 mph - N/A   Clear
1:53 PM 70.0 °F 48.0 °F 46% 30.20 in 10.0 mi Variable 3.5 mph - N/A   Clear
2:53 PM 70.0 °F 46.9 °F 44% 30.19 in 10.0 mi Variable 5.8 mph - N/A   Clear
3:53 PM 69.1 °F 46.9 °F 45% 30.19 in 10.0 mi NE 3.5 mph - N/A   Clear
4:53 PM 64.0 °F 48.9 °F 58% 30.19 in 10.0 mi Calm Calm - N/A   Clear
5:53 PM 57.0 °F 48.9 °F 74% 30.21 in 10.0 mi Calm Calm - N/A   Clear
6:53 PM 50.0 °F 46.9 °F 89% 30.21 in 10.0 mi Calm Calm - N/A   Clear
7:53 PM 50.0 °F 46.9 °F 89% 30.21 in 9.0 mi Calm Calm - N/A   Clear
8:53 PM 50.0 °F 46.9 °F 89% 30.21 in 9.0 mi Calm Calm - N/A   Clear
9:53 PM 46.9 °F 45.0 °F 93% 30.22 in 7.0 mi Calm Calm - N/A   Clear
10:53 PM 48.9 °F 46.0 °F 90% 30.20 in 7.0 mi Calm Calm - N/A   Clear
11:53 PM 48.0 °F 45.0 °F 89% 30.19 in 8.0 mi Calm Calm - N/A   Clear